Date,TemperatureHighF,TemperatureAvgF,TemperatureLowF,DewpointHighF,DewpointAvgF,DewpointLowF,HumidityHigh,HumidityAvg,HumidityLow,PressureMaxIn,PressureMinIn,WindSpeedMaxMPH,WindSpeedAvgMPH,GustSpeedMaxMPH,PrecipitationSumIn
2013-4-10,48,39,27,29,22,16,80,52,37,0.00,40.00,13,7,32,0.01
2013-4-11,52,41,33,34,27,20,96,63,32,0.00,40.00,11,5,23,0.04
2013-4-12,53,39,25,27,21,14,92,56,22,0.00,40.00,11,5,22,0.03
2013-4-13,41,34,27,34,26,14,97,73,41,0.00,40.00,16,8,28,0.49
2013-4-14,36,28,21,15,10,4,71,49,27,0.00,40.00,14,6,22,0.05
2013-4-15,35,25,16,27,17,9,93,71,43,0.00,40.00,12,5,22,0.05
2013-4-16,38,27,21,23,20,12,93,76,49,0.00,40.00,6,4,11,0.14
2013-4-17,36,26,16,15,11,5,87,55,34,0.00,40.00,9,5,22,0.06
2013-4-18,42,27,10,17,9,4,75,49,28,0.00,40.00,11,5,27,0.00
2013-4-19,43,34,23,31,22,15,83,63,41,0.00,40.00,13,5,26,0.00
2013-4-20,45,38,32,34,32,27,98,80,49,0.00,40.00,10,5,20,0.11
2013-4-21,49,40,29,32,27,20,93,64,37,0.00,40.00,12,6,24,0.05
2013-4-22,42,34,25,31,24,15,97,69,46,0.00,40.00,13,6,29,0.11
2013-4-23,43,28,13,15,9,2,85,50,18,0.00,40.00,11,5,27,0.01
2013-4-24,51,34,16,17,12,10,78,46,19,0.00,40.00,11,5,22,0.00
2013-4-25,58,41,24,19,13,6,66,39,13,0.00,40.00,15,8,26,0.00
2013-4-26,64,45,27,24,19,15,67,41,17,0.00,40.00,10,6,24,0.00
2013-4-27,67,49,29,27,23,21,73,43,17,0.00,40.00,14,8,24,0.00
2013-4-28,60,48,34,29,26,22,70,44,29,0.00,40.00,12,7,26,0.00
2013-4-29,58,45,31,31,24,20,70,45,30,0.00,40.00,15,9,38,0.00
2013-4-30,47,39,26,24,16,7,77,42,20,0.00,40.00,13,8,28,0.00